Content
SEND FEEDBACK

Daily
Averages
Monthly
Summary
United Kingdom

WITTERING, ENGLAND


Home > Europe > United Kingdom > England
Elevation: 275 feet     Latitude: 52 37N     Longitude: 000 28W

WEATHER
 
SELECT A DAY
Number of Records: 172,115;   Date Range: 7/1/96 - 11/25/14
 
SHARE

PRINT THIS DATA

[ ← Previous Day ]
WEATHER ALMANAC - OCTOBER 5, 2013
[ Next Day → ]
[ °C ]   °F
Weather ElementAverageHighLow
Temperature57.4 °F64.4 °F (2:50 pm)48.2 °F (11:50 pm)
Dewpoint50.5 °F55.4 °F (12:50 am)44.6 °F (8:50 pm)
Humidity77.6 %94 % (12:50 am)46 % (3:50 pm)
Barometer30.11 in30.24 in (9:50 pm)29.92 in (12:50 am)
Wind Speed7.3 mph11.5 mph (12:50 pm)
Weather ElementAverage
Visibility12.2 mi
Wind DirectionW (275 °)

Weather ElementTotal
Precipitation---
Heating Degree Days8.7 (Base 65)
Growing Degree Days6.3 (Base 50)
Averaged from 30 records on October 5, 2013
WEATHER CONDITIONS BREAKOUT
WIND DIRECTION BREAKOUT
WEATHER BY HOUR - OCTOBER 5, 2013
[ °C ]   °F
Local TimeTemperatureDewpointHumidityBarometerVisibilityWind DirectionWind SpeedGust SpeedPrecipitationEventsConditions
12:50 AM57.2 °F55.4 °F94 %29.92 in6.2 miWest (270°)6.9 mphMostly Cloudy
1:50 AM57.2 °F55.4 °F94 %29.95 in6.2 miWest (260°)5.8 mphOvercast
2:50 AM57.2 °F53.6 °F88 %29.95 in6.2 miWSW (250°)6.9 mphOvercast
3:50 AM57.0 °F54.0 °F86 %29.97 in22.0 miWest (260°)8.1 mphOvercast
3:50 AM57.2 °F53.6 °F88 %29.95 in6.2 miWest (260°)8.1 mphOvercast
4:50 AM57.2 °F53.6 °F88 %29.98 in6.2 miWest (260°)8.1 mphMostly Cloudy
5:50 AM55.4 °F53.6 °F94 %30.01 in6.2 miWest (270°)9.2 mphOvercast
6:50 AM57.2 °F53.6 °F88 %30.01 in6.2 miWest (260°)9.2 mphOvercast
7:50 AM57.2 °F55.4 °F94 %30.04 in6.2 miWest (280°)4.6 mphOvercast
8:50 AM57.2 °F55.4 °F94 %30.06 in6.2 miWest (270°)5.8 mphMostly Cloudy
9:50 AM59.0 °F55.0 °F84 %30.09 in19.0 miWest (280°)9.2 mphMostly Cloudy
9:50 AM59.0 °F55.4 °F88 %30.09 in6.2 miWest (280°)9.2 mphMostly Cloudy
10:50 AM60.8 °F55.4 °F82 %30.09 in6.2 miWest (280°)8.1 mphOvercast
11:50 AM60.8 °F53.6 °F77 %30.12 in6.2 miWest (280°)6.9 mphScattered Clouds
12:50 PM62.6 °F51.8 °F68 %30.12 in6.2 miWNW (290°)11.5 mphMostly Cloudy
12:50 PM62.0 °F52.0 °F61 %30.14 in34.0 miWNW (290°)11.5 mphMostly Cloudy
1:50 PM62.6 °F50.0 °F63 %30.15 in6.2 miWest (280°)10.4 mphMostly Cloudy
2:50 PM64.4 °F48.2 °F56 %30.15 in6.2 miWNW (300°)11.5 mphPartly Cloudy
3:50 PM63.0 °F47.0 °F46 %30.17 in47.0 miNW (310°)9.2 mphPartly Cloudy
3:50 PM62.6 °F48.2 °F59 %30.15 in6.2 miNW (310°)9.2 mphScattered Clouds
4:50 PM60.8 °F46.4 °F59 %30.18 in6.2 miWNW (300°)10.4 mph
5:50 PM59.0 °F46.4 °F63 %30.18 in6.2 miNW (310°)5.8 mphMostly Cloudy
6:50 PM55.4 °F46.4 °F72 %30.18 in6.2 miWest (280°)3.5 mphScattered Clouds
6:50 PM56.0 °F46.0 °F61 %30.21 in47.0 miWest (280°)3.5 mphPartly Cloudy
7:50 PM53.6 °F46.4 °F77 %30.21 in6.2 miWNW (290°)4.6 mphScattered Clouds
8:50 PM51.8 °F44.6 °F76 %30.21 in6.2 miWest (280°)3.5 mph
9:50 PM50.0 °F45.0 °F77 %30.24 in47.0 miWSW (240°)3.5 mph
9:50 PM50.0 °F44.6 °F82 %30.21 in6.2 miWSW (240°)3.5 mph
10:50 PM50.0 °F44.6 °F82 %30.21 in6.2 miSW (230°)4.6 mph
11:50 PM48.2 °F44.6 °F87 %30.24 in6.2 miWest (260°)5.8 mph
Hourly data recorded from EGXT, located miles away from Wittering, England







STORIES FROM OUR PARTNERS